Flag for Norfolk Island Weather past 2 weeks in Kingston, Norfolk Island

Now
70 °F

Passing clouds.


Feels Like: 70 °F
Forecast: 68 / 74 °F
Wind: 24 mph from West

Location: Norfolk Island Airport


UV Index: 5 (Moderate)

Visibility: 5 mi


Pressure: 29.62 "Hg

Humidity: 83%

Dew point: 64 °F

Location of KingstonLocation

Historic Weather in Kingston

°F

Kingston temperature yesterday

Maximum temperature yesterday: 73 °F (at 8:30 AM)
Minimum temperature yesterday: 70 °F (at 10:00 AM)
Average temperature yesterday: 72 °F

Past Weeks' High & Low Weather Summary

 TemperatureHumidityPressure
High75 °F (Apr 12, 10:30 AM)100% (Apr 9, 1:00 AM)30.15 "Hg (Apr 9, 1:00 AM)
Low61 °F (Apr 7, 12:30 AM)53% (Apr 7, 2:30 PM)29.42 "Hg (Apr 16, 6:00 PM)
Average68 °F81%29.99 "Hg
* Reported Apr 1 11:30 PM — Apr 16 11:30 PM, Kingston, Weather by CustomWeather, © 2014

Note: Actual official high and low records may vary slightly from our data, if they occured in-between our weather recording intervals... More about our weather records

Advertising

Historic Weather Conditions — Data for Previous 24 hours

 ConditionsComfort  
Time TempWeatherWind HumidityBarometerVisibility
11:30 PM
Apr 16
70 °FPassing clouds.26 mph83%29.59 "Hg5 mi
11:00 PM70 °FPassing clouds.29 mph88%29.56 "Hg5 mi
10:30 PM72 °FPassing clouds.29 mph78%29.56 "Hg4 mi
10:00 PM70 °FScattered showers. Partly cloudy.28 mph83%29.53 "Hg4 mi
9:30 PM70 °FPassing clouds.28 mph83%29.50 "Hg4 mi
9:00 PM70 °FDrizzle. Low clouds.30 mph88%29.47 "Hg4 mi
8:30 PM72 °FFog.25 mph88%29.45 "HgN/A
8:00 PM72 °FDrizzle. Low clouds.24 mph94%29.42 "Hg3 mi
7:30 PM72 °FPartly cloudy.21 mph94%29.42 "Hg3 mi
6:30 PM72 °FDrizzle. Fog.17 mph94%29.42 "Hg3 mi
6:00 PM72 °FPassing clouds.20 mph94%29.42 "Hg2 mi
5:30 PM72 °FSprinkles. Passing clouds.20 mph94%29.45 "Hg4 mi
5:00 PM72 °FSprinkles. Partly sunny.17 mph100%29.45 "Hg1 mi
4:30 PM73 °FSprinkles. Partly sunny.20 mph89%29.45 "Hg3 mi
4:00 PM73 °FPartly sunny.17 mph94%29.47 "Hg4 mi
3:30 PM73 °FLow clouds.17 mph94%29.47 "Hg3 mi
2:30 PM73 °FPartly sunny.20 mph89%29.53 "Hg4 mi
2:00 PM73 °FPartly sunny.23 mph89%29.56 "Hg4 mi
1:30 PM73 °FBroken clouds.17 mph89%29.56 "Hg4 mi
1:00 PM73 °FFog.20 mph94%29.59 "Hg3 mi
12:30 PM73 °FFog.20 mph94%29.62 "Hg3 mi
10:30 AM70 °FSprinkles. Partly sunny.16 mph100%29.71 "Hg2 mi
10:00 AM70 °FSprinkles. Broken clouds.18 mph100%29.71 "Hg2 mi
9:33 AM73 °FPartly sunny.17 mph89%29.74 "Hg4 mi
9:30 AM73 °FPartly sunny.17 mph89%29.74 "Hg4 mi
8:30 AM73 °FFog.14 mph89%29.74 "Hg3 mi
8:00 AM72 °FFog.16 mph100%29.74 "Hg3 mi
7:30 AM72 °FFog.16 mph100%29.74 "Hg2 mi
7:00 AM72 °FLow clouds.16 mph100%29.74 "Hg2 mi
6:30 AM72 °FLow clouds.16 mph94%29.74 "Hg3 mi
6:00 AM72 °FLow clouds.15 mph94%29.74 "Hg3 mi
5:30 AM72 °FLow clouds.15 mph94%29.74 "Hg2 mi
5:00 AM72 °FLow clouds.14 mph94%29.77 "Hg2 mi
4:30 AM72 °FLow clouds.14 mph94%29.77 "Hg2 mi
4:00 AM72 °FLow clouds.15 mph94%29.77 "Hg3 mi
3:30 AM72 °FLow clouds.14 mph94%29.77 "Hg3 mi
2:30 AM72 °FLow clouds.16 mph94%29.80 "Hg3 mi
1:30 AM72 °FSprinkles. Low clouds.16 mph94%29.83 "Hg3 mi
1:00 AM72 °FLight rain. Low clouds.15 mph94%29.86 "Hg3 mi
Weather by CustomWeather, © 2014

See weather overview